Overview Statistics Trail Chart Weather Telemetry Raw packets
 

This is the latest recevied weather packets stored in our database for station/object KF7SOJ. If no packets are shown the sender has not sent any weather packets the latest 10 day(s).

<< 102 103 104 105 106 107 108 >>
Time Temp. Humidity Pressure Rain* Wind** Luminosity Snow
1787846232 26.67° C 32% 934.8 hPa 0 mm - 483 W/m² -
1787845928 26.67° C 32% 934.7 hPa 0 mm - 485 W/m² -
1787845623 26.67° C 33% 934.9 hPa 0 mm - 477 W/m² -
1787845323 26.11° C 33% 934.9 hPa 0 mm - 477 W/m² -
1787845019 25.56° C 35% 934.9 hPa 0 mm - 469 W/m² -
1787844714 25° C 36% 934.8 hPa 0 mm - 439 W/m² -
1787844413 24.44° C 40% 935.1 hPa 0 mm - 398 W/m² -
1787844108 24.44° C 40% 935.1 hPa 0 mm - 398 W/m² -
1787843803 23.89° C 41% 935 hPa 0 mm - 396 W/m² -
1787843498 23.33° C 42% 935 hPa 0 mm - 375 W/m² -
1787843195 23.33° C 41% 935 hPa 0 mm - 361 W/m² -
1787842895 23.89° C 40% 935.1 hPa 0 mm - 281 W/m² -
1787842589 23.89° C 40% 935.1 hPa 0 mm - 258 W/m² -
1787842289 23.33° C 40% 935.2 hPa 0 mm - 293 W/m² -
1787841989 23.33° C 41% 935 hPa 0 mm - 254 W/m² -
1787841685 22.78° C 42% 935.1 hPa 0 mm - 271 W/m² -
1787841384 22.78° C 42% 934.8 hPa 0 mm - 260 W/m² -
1787841079 22.78° C 42% 935 hPa 0 mm - 237 W/m² -
1787840774 22.22° C 42% 934.9 hPa 0 mm - 229 W/m² -
1787840469 21.67° C 43% 934.9 hPa 0 mm - 211 W/m² -
1787840165 21.67° C 44% 934.9 hPa 0 mm - 194 W/m² -
1787839864 21.11° C 45% 935 hPa 0 mm - 174 W/m² -
1787839560 20.56° C 45% 935 hPa 0 mm - 159 W/m² -
1787839260 20.56° C 46% 935.2 hPa 0 mm - 146 W/m² -
1787838960 20° C 46% 935 hPa 0 mm - 128 W/m² -

* Rain latest hour (hover to see other rain measurements)
** Current wind speed in m/s (hover to see current wind gust speed)